Weather History for KMKN - March, 2013

Change the Weather History Date:

Sunday, March 10, 2013

  Actual Average (KSEP) Record (KSEP)
Temperature  
Mean Temperature 48 °F -  
Max Temperature 59 °F 68 °F 95 °F (1954)
Min Temperature 37 °F 43 °F 18 °F (1948)
Degree Days  
Heating Degree Days 17    
Moisture  
Dew Point 32 °F    
Average Humidity 52    
Maximum Humidity 88    
Minimum Humidity 35    
Precipitation  
Precipitation 0.00 in - - ()
Sea Level Pressure  
Sea Level Pressure 29.97 in    
Wind  
Wind Speed 13 mph (NW)    
Max Wind Speed 29 mph    
Max Gust Speed 37 mph    
Visibility 10 miles    
Events Rain    
Averages and records for this station are not official NWS values.
T = Trace of Precipitation, MM = Missing Value Source: NWS Daily Summary

Daily Weather History Graph

Daily Weather History Graph

Search for Another Location

Airport or City:

Trip Planner

Search our weather history database for the weather conditions in past years. The results will help you decide how hot, cold, wet, or windy it might be!

Date:

Astronomy

Mar. 10, 2013 Rise Set
Actual Time 7:50 AM CDT 7:39 PM CDT
Civil Twilight 7:26 AM CDT 8:03 PM CDT
Nautical Twilight 6:57 AM CDT 8:31 PM CDT
Astronomical Twilight 6:29 AM CDT 9:00 PM CDT
Moon 6:49 AM CDT (3/10) 6:48 PM CDT (3/10)
Length of Visible Light 12h 37m
Length of Day
11h 48m
Waning Crescent, 2% of the Moon is Illuminated
Mar 10
Waning Crescent
Mar 11
New
Mar 19
First Quarter
Mar 27
Full
Apr 2
Last Quarter

Hourly Weather History & Observations

Time (CDT) Temp. Windchill Dew Point Humidity Pressure Visibility Wind Dir Wind Speed Gust Speed Precip Events Conditions
12:15 AM 59.0 °F - 53.6 °F 82% 29.79 in 10.0 mi NW 5.8 mph - N/A   Overcast
12:35 AM 57.2 °F - 53.6 °F 88% 29.79 in 10.0 mi WNW 5.8 mph - N/A   Overcast
12:55 AM 57.2 °F - 50.0 °F 77% 29.82 in 10.0 mi WNW 10.4 mph - N/A   Overcast
1:15 AM 55.4 °F - 44.6 °F 67% 29.84 in 10.0 mi WNW 8.1 mph - N/A   Overcast
1:35 AM 55.4 °F - 41.0 °F 58% 29.83 in 10.0 mi NW 12.7 mph 21.9 mph N/A   Overcast
1:55 AM 55.4 °F - 39.2 °F 54% 29.82 in 10.0 mi NW 12.7 mph - N/A   Overcast
3:15 AM 55.4 °F - 37.4 °F 51% 29.85 in 10.0 mi NW 12.7 mph 19.6 mph N/A   Overcast
3:35 AM 55.4 °F - 37.4 °F 51% 29.84 in 10.0 mi NW 8.1 mph - N/A   Overcast
3:55 AM 53.6 °F - 39.2 °F 58% 29.83 in 10.0 mi WNW 4.6 mph - N/A Rain Light Rain
4:15 AM 53.6 °F - 39.2 °F 58% 29.84 in 10.0 mi West 5.8 mph - N/A Rain Light Rain
4:35 AM 53.6 °F - 41.0 °F 62% 29.83 in 10.0 mi WNW 3.5 mph - N/A   Light Drizzle
4:55 AM 51.8 °F - 42.8 °F 71% 29.82 in 10.0 mi West 3.5 mph - N/A   Overcast
5:15 AM 51.8 °F - 42.8 °F 71% 29.81 in 10.0 mi North 4.6 mph - N/A   Overcast
5:35 AM 51.8 °F - 41.0 °F 67% 29.80 in 10.0 mi West 4.6 mph - N/A   Overcast
5:55 AM 53.6 °F - 39.2 °F 58% 29.80 in 10.0 mi West 5.8 mph - N/A   Overcast
6:15 AM 53.6 °F - 35.6 °F 51% 29.82 in 10.0 mi WNW 10.4 mph 17.3 mph N/A   Overcast
6:35 AM 53.6 °F - 33.8 °F 47% 29.84 in 10.0 mi NW 18.4 mph 31.1 mph N/A   Overcast
6:55 AM 50.0 °F - 33.8 °F 54% 29.85 in 10.0 mi NW 18.4 mph 24.2 mph N/A   Overcast
7:15 AM 50.0 °F - 33.8 °F 54% 29.86 in 10.0 mi NW 16.1 mph 26.5 mph N/A   Mostly Cloudy
7:35 AM 48.2 °F - 33.8 °F 58% 29.88 in 10.0 mi NW 15.0 mph 23.0 mph N/A   Mostly Cloudy
7:55 AM 46.4 °F 39.0 °F 32.0 °F 57% 29.90 in 10.0 mi NW 19.6 mph 27.6 mph N/A   Mostly Cloudy
8:15 AM 44.6 °F 37.2 °F 32.0 °F 61% 29.91 in 10.0 mi NW 17.3 mph 25.3 mph N/A   Scattered Clouds
8:35 AM 44.6 °F 36.6 °F 32.0 °F 61% 29.93 in 10.0 mi NW 19.6 mph 26.5 mph N/A   Clear
8:55 AM 44.6 °F 36.6 °F 32.0 °F 61% 29.94 in 10.0 mi NW 19.6 mph 25.3 mph N/A   Clear
9:15 AM 46.4 °F 39.0 °F 32.0 °F 57% 29.95 in 10.0 mi NW 19.6 mph 27.6 mph N/A   Clear
9:35 AM 46.4 °F 37.9 °F 30.2 °F 53% 29.96 in 10.0 mi NW 25.3 mph 35.7 mph N/A   Clear
9:55 AM 46.4 °F 37.9 °F 30.2 °F 53% 29.97 in 10.0 mi NNW 25.3 mph 34.5 mph N/A   Clear
10:15 AM 46.4 °F 37.5 °F 32.0 °F 57% 29.98 in 10.0 mi NNW 27.6 mph 35.7 mph N/A   Clear
10:35 AM 48.2 °F - 32.0 °F 54% 29.99 in 10.0 mi NW 23.0 mph 34.5 mph N/A   Clear
10:55 AM 48.2 °F - 32.0 °F 54% 30.00 in 10.0 mi NNW 27.6 mph 36.8 mph N/A   Clear
11:15 AM 50.0 °F - 32.0 °F 50% 30.01 in 10.0 mi NNW 24.2 mph 34.5 mph N/A   Scattered Clouds
11:35 AM 50.0 °F - 32.0 °F 50% 30.02 in 10.0 mi NW 19.6 mph 32.2 mph N/A   Scattered Clouds
11:55 AM 50.0 °F - 32.0 °F 50% 30.02 in 10.0 mi NNW 21.9 mph 32.2 mph N/A   Scattered Clouds
12:15 PM 50.0 °F - 32.0 °F 50% 30.02 in 10.0 mi NNW 21.9 mph 31.1 mph N/A   Scattered Clouds
12:35 PM 50.0 °F - 32.0 °F 50% 30.02 in 10.0 mi NNW 28.8 mph 34.5 mph N/A   Clear
12:55 PM 51.8 °F - 32.0 °F 47% 30.02 in 10.0 mi NW 19.6 mph 33.4 mph N/A   Clear
1:15 PM 51.8 °F - 32.0 °F 47% 30.03 in 10.0 mi NNW 26.5 mph 32.2 mph N/A   Clear
1:35 PM 51.8 °F - 32.0 °F 47% 30.02 in 10.0 mi NNW 25.3 mph 32.2 mph N/A   Scattered Clouds
1:55 PM 51.8 °F - 32.0 °F 47% 30.01 in 10.0 mi NNW 26.5 mph 32.2 mph N/A   Clear
2:15 PM 53.6 °F - 32.0 °F 44% 30.00 in 10.0 mi NW 19.6 mph 34.5 mph N/A   Clear
2:35 PM 53.6 °F - 30.2 °F 41% 30.00 in 10.0 mi NW 18.4 mph 33.4 mph N/A   Clear
2:55 PM 53.6 °F - 30.2 °F 41% 29.99 in 10.0 mi NNW 23.0 mph 32.2 mph N/A   Clear
3:15 PM 53.6 °F - 28.4 °F 38% 29.99 in 10.0 mi NNW 19.6 mph 29.9 mph N/A   Clear
3:35 PM 53.6 °F - 28.4 °F 38% 30.00 in 10.0 mi NNW 20.7 mph 34.5 mph N/A   Clear
3:55 PM 55.4 °F - 30.2 °F 38% 29.99 in 10.0 mi NNW 18.4 mph 33.4 mph N/A   Clear
4:15 PM 55.4 °F - 30.2 °F 38% 29.99 in 10.0 mi NNW 23.0 mph 35.7 mph N/A   Clear
4:35 PM 53.6 °F - 28.4 °F 38% 29.99 in 10.0 mi NW 16.1 mph 34.5 mph N/A   Clear
4:55 PM 55.4 °F - 28.4 °F 36% 29.99 in 10.0 mi North 19.6 mph 27.6 mph N/A   Clear
5:15 PM 53.6 °F - 28.4 °F 38% 29.99 in 10.0 mi NNW 17.3 mph 31.1 mph N/A   Clear
5:35 PM 53.6 °F - 26.6 °F 35% 30.00 in 10.0 mi NNW 19.6 mph 28.8 mph N/A   Clear
5:55 PM 53.6 °F - 26.6 °F 35% 30.01 in 10.0 mi NNW 18.4 mph 26.5 mph N/A   Clear
6:15 PM 51.8 °F - 26.6 °F 38% 30.01 in 10.0 mi North 21.9 mph 27.6 mph N/A   Clear
6:35 PM 51.8 °F - 26.6 °F 38% 30.02 in 10.0 mi NNW 15.0 mph 26.5 mph N/A   Clear
6:55 PM 51.8 °F - 26.6 °F 38% 30.03 in 10.0 mi North 18.4 mph 24.2 mph N/A   Clear
7:15 PM 50.0 °F - 28.4 °F 43% 30.03 in 10.0 mi North 12.7 mph 16.1 mph N/A   Clear
7:35 PM 50.0 °F - 26.6 °F 40% 30.04 in 10.0 mi North 11.5 mph - N/A   Clear
7:55 PM 46.4 °F 42.4 °F 26.6 °F 46% 30.05 in 10.0 mi North 8.1 mph - N/A   Clear
8:15 PM 46.4 °F 43.5 °F 28.4 °F 50% 30.06 in 10.0 mi NNW 5.8 mph - N/A   Clear
8:35 PM 46.4 °F 44.3 °F 28.4 °F 50% 30.08 in 10.0 mi NNW 4.6 mph - N/A   Clear
8:55 PM 44.6 °F 42.2 °F 28.4 °F 53% 30.09 in 10.0 mi NNW 4.6 mph - N/A   Clear
9:15 PM 44.6 °F 43.1 °F 26.6 °F 49% 30.10 in 10.0 mi NW 3.5 mph - N/A   Clear
9:35 PM 44.6 °F 42.2 °F 28.4 °F 53% 30.10 in 10.0 mi NW 4.6 mph - N/A   Clear
9:55 PM 42.8 °F 40.1 °F 28.4 °F 57% 30.12 in 10.0 mi NW 4.6 mph - N/A   Clear
10:15 PM 42.8 °F 41.1 °F 28.4 °F 57% 30.12 in 10.0 mi WNW 3.5 mph - N/A   Clear
10:35 PM 42.8 °F 40.1 °F 26.6 °F 53% 30.11 in 10.0 mi WNW 4.6 mph - N/A   Clear
10:55 PM 42.8 °F 38.6 °F 26.6 °F 53% 30.10 in 10.0 mi NW 6.9 mph - N/A   Clear
11:15 PM 41.0 °F 36.4 °F 26.6 °F 57% 30.09 in 10.0 mi NW 6.9 mph - N/A   Clear
11:35 PM 41.0 °F 35.8 °F 26.6 °F 57% 30.09 in 10.0 mi NW 8.1 mph - N/A   Clear
11:55 PM 39.2 °F 34.2 °F 24.8 °F 56% 30.09 in 10.0 mi NW 6.9 mph - N/A   Clear
12:15 AM 39.2 °F 34.2 °F 24.8 °F 56% 30.09 in 10.0 mi NW 6.9 mph - N/A   Clear
12:35 AM 37.4 °F 32.1 °F 23.0 °F 56% 30.09 in 10.0 mi NW 6.9 mph - N/A   Clear
12:55 AM 37.4 °F 32.8 °F 23.0 °F 56% 30.10 in 10.0 mi WNW 5.8 mph - N/A   Clear